#timestamp,LO_Frequency,Hit,StdDev 
1540580415.6,286047000.4,N
1540580435.4,286047000.5,N
1540580455.2,286047001.0,N
1540580475.1,286046999.1,N
1540580476.0,286046999.1,N
1540580495.8,286046998.2,N
1540580515.6,286047001.1,N
1540580535.5,286046998.9,N
1540580555.3,286046998.7,N
1540580575.2,286046996.5,N
1540580595.9,286046998.7,N
1540580615.7,286046998.2,N
1540580635.6,286047000.4,N
1540580655.4,286046998.2,N
1540580675.3,286047000.8,N
1540580695.1,286047000.7,N
1540580696.0,286047000.7,N
1540580715.8,286046996.6,N
1540580735.7,286046996.5,N
1540580755.5,286046997.5,N
1540580775.4,286046997.7,N
1540580795.2,286046997.1,N
1540580815.0,286046997.4,N
1540580815.9,286046997.4,N
1540580835.8,286046996.5,N
1540580855.6,286046997.7,N
1540580875.4,286046997.6,N
1540580895.3,286046995.4,N
1540580915.1,286046997.6,N
1540580935.9,286046997.6,N
1540580955.7,286046995.6,N
1540580975.5,286046997.5,N
1540580995.4,286046996.5,N
1540581015.2,286046999.1,N
1540581035.1,286046996.6,N
1540581036.0,286046996.6,N
1540581055.8,286046997.5,N
1540581075.6,286046994.9,Y
1540581095.5,286046998.7,P
1540581115.3,286046998.2,P
1540581135.1,286046999.4,N
1540581155.9,286046999.2,N
1540581175.7,286046999.0,N
1540581195.6,286046996.7,Y
1540581215.4,286046996.5,P
1540581235.2,286046997.0,N
1540581255.1,286046997.1,P
1540581256.0,286046997.1,Y
1540581275.8,286047000.0,P
1540581295.7,286047002.6,N
1540581315.5,286047002.0,N
1540581335.3,286047001.7,N
1540581355.2,286047001.4,N
1540581375.0,286047003.8,N
1540581375.9,286047003.8,N
1540581395.7,286047002.9,N
1540581415.6,286047006.0,Y
1540581435.4,286047001.7,P
1540581455.3,286047002.4,P
1540581475.1,286047002.2,P
1540581476.0,286047002.2,Y
1540581495.8,286047000.5,P
1540581515.7,286047000.5,N
1540581535.5,286047000.7,N
1540581555.3,286046998.8,N
1540581575.2,286047001.2,N
1540581595.0,286047001.2,N
1540581595.9,286047001.2,N
1540581615.8,286046998.6,N
1540581635.6,286046998.6,N
1540581655.4,286046998.7,N
1540581675.3,286046998.5,N
1540581695.1,286046998.4,N
1540581715.8,286046999.0,N
1540581735.7,286046999.5,N
1540581755.5,286046996.5,N
1540581775.3,286046997.6,N
1540581795.2,286046996.5,N
1540581815.0,286046997.2,N
1540581815.9,286046997.2,N
1540581835.8,286046997.7,N
1540581855.6,286046997.0,N
1540581875.4,286046998.1,N
1540581895.3,286046998.1,N
1540581915.1,286046998.3,N
1540581935.8,286046998.8,N
1540581955.7,286047001.0,N
1540581975.5,286046998.8,N
1540581995.4,286046998.2,N
1540582015.2,286047001.2,N
1540582035.0,286047000.8,N
1540582035.9,286047000.8,N
1540582055.8,286047000.4,N
1540582075.6,286047000.6,N
1540582095.5,286047002.5,N
1540582115.3,286047002.7,N
1540582135.1,286047001.2,N
1540582155.9,286046998.2,N
1540582175.7,286046998.7,N
1540582195.5,286046998.3,N
1540582215.4,286047000.6,N
1540582235.2,286046998.2,N
1540582255.1,286046998.9,N
1540582256.0,286046998.9,N
1540582275.8,286046996.5,N
1540582295.6,286046998.8,N
1540582315.5,286046998.4,N
1540582335.3,286047000.9,N
1540582355.2,286047002.7,N
1540582375.9,286047000.0,N
1540582395.7,286047000.8,N
1540582415.6,286047000.5,N
1540582435.4,286047001.2,N
1540582455.2,286047000.0,N
1540582475.1,286047002.4,N
1540582476.0,286047002.4,N
1540582495.8,286047000.7,N
1540582515.7,286046998.1,N
1540582535.5,286047000.1,N
1540582555.3,286047002.8,N
1540582575.2,286047002.7,N
1540582595.0,286047002.5,N
1540582595.9,286047002.5,N
1540582615.8,286047002.2,N
1540582635.6,286047001.7,N
1540582655.4,286047001.6,N
1540582675.3,286047001.3,N
1540582695.1,286047001.3,N
1540582715.8,286047004.4,N
1540582735.7,286047001.8,N
1540582755.5,286047002.1,N
1540582775.4,286047002.6,N
1540582795.2,286047000.6,N
1540582815.0,286047000.0,N
1540582815.9,286047000.0,N
1540582835.8,286047001.9,N
1540582855.6,286046999.9,N
1540582875.5,286046998.3,N
1540582895.3,286046999.4,N
1540582915.1,286046998.1,N
1540582935.9,286046998.8,N
1540582955.7,286046998.9,N
1540582975.6,286046998.4,N
1540582995.4,286046999.0,N
1540583015.2,286046999.1,N
1540583035.1,286046999.0,N
1540583036.0,286046999.0,N
1540583055.8,286046998.8,N
1540583075.6,286046999.0,N
1540583095.5,286046996.5,N
1540583115.3,286046996.7,N
1540583135.2,286046998.8,N
1540583155.9,286046998.3,N
1540583175.7,286046999.0,N
1540583195.6,286046997.1,N
1540583215.4,286046998.8,N
1540583235.3,286046998.5,N
1540583255.1,286047001.1,N
1540583256.0,286047001.1,N
1540583275.8,286047000.8,N
1540583295.7,286046999.8,N
1540583315.5,286047000.2,N
1540583335.3,286047000.6,N
1540583355.2,286046999.9,N
1540583375.0,286047001.0,N
1540583375.9,286047001.0,N
1540583395.8,286047000.5,N
1540583415.6,286047000.9,N
1540583435.4,286047000.4,N
1540583455.3,286047001.1,N
1540583475.1,286047001.0,N
1540583495.9,286047001.0,N
1540583515.7,286047000.3,N
1540583535.5,286046998.1,N
1540583555.4,286047000.2,N
1540583575.2,286047001.7,N
1540583595.0,286047001.7,N
1540583595.9,286047001.7,N
1540583615.8,286047002.7,N
1540583635.6,286046999.8,N
1540583655.5,286046999.8,N
1540583675.3,286047000.3,N
1540583695.1,286047000.0,N
1540583715.9,286047001.9,N
1540583735.7,286047004.3,Y
1540583755.5,286047002.0,P
1540583775.4,286047000.3,N
1540583795.2,286047002.0,N
1540583815.1,286047002.3,N
1540583816.0,286047002.3,N
1540583835.8,286047001.8,N
1540583855.6,286047001.9,N
1540583875.5,286047001.7,N
1540583895.3,286047001.5,N
1540583915.1,286047004.3,Y
1540583935.9,286046999.8,P
1540583955.7,286047001.1,N
1540583975.6,286046999.8,N
1540583995.4,286047002.8,Y
